Regional Weather Roundup
Issued by NWS State College, PA

Home | Current Version | Previous Version | Graphics & Text | Print | Product List | Glossary On
Versions: 1 2 3 4 5 6 7 8 9 10 11 12 13 14 15 16 17 18 19 20 21 22 23 24 25 26 27 28 29 30 31 32 33 34 35 36 37 38 39 40 41 42 43 44 45 46 47 48 49 50
000
ASUS41 KCTP 012110
RWRCTP

REGIONAL WEATHER ROUNDUP
NATIONAL WEATHER SERVICE STATE COLLEGE PA
500 PM EDT WED OCT 01 2014

Note: "fair" indicates few or no clouds below 12,000 feet with no
significant weather and/or obstructions to visibility.

* = STATION THAT DOES NOT REPORT PRECIPITATION /E.G. RAIN...SNOW...ETC/
    THUNDER OR FOG.

PAZ002>004-007>009-013>016-020>023-029>032-012200-
WESTERN PENNSYLVANIA

CITY           SKY/WX    TMP DP  RH WIND       PRES   REMARKS
ERIE           SUNNY     68  59  73 NE10      30.01F
MEADVILLE      PTSUNNY   70  55  59 VRB5      30.02S
FRANKLIN*      PTSUNNY   70  55  60 SW6       30.03S
NEW CASTLE       N/A     68  58  70 CALM      30.03S
BEAVER COUNTY  MOSUNNY   66  55  68 SE3       30.03S
BUTLER*        SUNNY     68  55  64 SW6       30.04S
PITTSBURGH INT MOSUNNY   65  56  72 W5        30.02S
PITTSBURGH     SUNNY     69  55  60 VRB5      30.01S
INDIANA*       SUNNY     75  46  35 VRB6      30.04S
LATROBE        PTSUNNY   75  57  53 CALM      30.01S
WASHINGTON CO* SUNNY     66  55  68 CALM      30.04S
$$

PAZ004>006-010>012-017>019-024>028-033>037-041-042-045-046-049>053-012200-
CENTRAL PENNSYLVANIA

CITY           SKY/WX    TMP DP  RH WIND       PRES   REMARKS
BRADFORD       SUNNY     67  50  54 VRB6      30.05S
DUBOIS         SUNNY     69  53  56 SE6       30.03S
CLEARFIELD     PTSUNNY   69  54  58 E9        30.04S
JOHNSTOWN      CLOUDY    68  53  58 SE8       30.04R
ALTOONA        SUNNY     66  57  72 E3        30.04F
STATE COLLEGE  PTSUNNY   68  59  73 CALM      30.04S
WILLIAMSPORT   SUNNY     72  56  57 W3        30.01S
SELINSGROVE    SUNNY     72  56  57 NW5       30.02S
FT INDIANTOWN  SUNNY     72  60  67 W5        30.02S
CAPITAL CITY   MOSUNNY   71  57  61 SW6       30.02S
HARRISBURG     MOSUNNY   70  61  73 SW3       30.01S
YORK           MOSUNNY   69  58  67 CALM      30.03S
$$

PAZ038>040-043-044-047-048-054-055-060>062-067>071-012200-
EASTERN PENNSYLVANIA

CITY           SKY/WX    TMP DP  RH WIND       PRES   REMARKS
SCRANTON       PTSUNNY   70  53  54 VRB6      30.03R
MOUNT POCONO   CLOUDY    62  53  72 E9        30.07R
ALLENTOWN      PTSUNNY   71  55  56 NE9       30.03R
QUAKERTOWN*    PTCLDY    68  57  68 NE6       30.03S
READING        CLOUDY    73  55  53 NE5       30.00S
LANCASTER      PTSUNNY   73  56  54 CALM      30.01F
COATESVILLE    MOCLDY    70  57  64 N5        30.03R
POTTSTOWN      MOSUNNY   70  56  61 NE9       30.03R
BLUE BELL      MOSUNNY   72  59  64 E6        30.01S
DOYLESTOWN     CLOUDY    69  57  65 NE8       30.02S
WILLOW GROVE   NOT AVBL
NORTH PHILA    CLOUDY    70  56  61 NE10      30.04R
PHILADELPHIA   MOSUNNY   71  57  61 NE10      30.01S
$$



USA.gov is the U.S. government's official web portal to all federal, state and local government web resources and services.